This is the latest recevied weather packets stored in our database for station/object KE5AKC. If no packets are shown the sender has not sent any weather packets the latest 1 day(s).
| Time | Temp. | Humidity | Pressure | Rain* | Wind** | Luminosity | Snow |
|---|---|---|---|---|---|---|---|
| 1778037435 | 25.56° C | 84% | 1009 hPa | 0 mm | 1.34 m/s, 115° | 0 W/m² | - |
| 1778037132 | 25.56° C | 84% | 1008.6 hPa | 0 mm | 2.24 m/s, 210° | 0 W/m² | - |
| 1778036830 | 25.56° C | 83% | 1009 hPa | 0 mm | 0.89 m/s, 89° | 0 W/m² | - |
| 1778036527 | 25.56° C | 83% | 1008.6 hPa | 0 mm | 2.24 m/s, 164° | 0 W/m² | - |
| 1778036224 | 25.56° C | 83% | 1008.6 hPa | 0 mm | 3.13 m/s, 112° | 0 W/m² | - |
| 1778035920 | 25.56° C | 83% | 1009 hPa | 0 mm | 0.45 m/s, 146° | 0 W/m² | - |
| 1778035618 | 25.56° C | 83% | 1008.6 hPa | 0 mm | 1.79 m/s, 162° | 0 W/m² | - |
| 1778035314 | 25.56° C | 83% | 1008.6 hPa | 0 mm | 1.79 m/s, 260° | 0 W/m² | - |
| 1778035010 | 25.56° C | 83% | 1008.6 hPa | 0 mm | 0.45 m/s, 176° | 0 W/m² | - |
| 1778034707 | 25.56° C | 82% | 1008.3 hPa | 0 mm | 0.45 m/s, 148° | 0 W/m² | - |
| 1778034404 | 25.56° C | 82% | 1008.3 hPa | 0 mm | 2.24 m/s, 156° | 0 W/m² | - |
| 1778034102 | 26.11° C | 82% | 1008.3 hPa | 0 mm | 1.34 m/s, 164° | 0 W/m² | - |
| 1778033800 | 26.11° C | 82% | 1008 hPa | 0 mm | 1.34 m/s, 208° | 0 W/m² | - |
| 1778033497 | 26.11° C | 82% | 1008 hPa | 0 mm | 0.45 m/s, 117° | 0 W/m² | - |
| 1778033194 | 26.11° C | 82% | 1008 hPa | 0 mm | 2.24 m/s, 223° | 0 W/m² | - |
| 1778032891 | 26.11° C | 81% | 1008 hPa | 0 mm | 0.89 m/s, 226° | 0 W/m² | - |
| 1778032589 | 26.11° C | 81% | 1007.6 hPa | 0 mm | 1.34 m/s, 323° | 0 W/m² | - |
| 1778032286 | 26.11° C | 81% | 1008 hPa | 0 mm | 0.45 m/s, 148° | 0 W/m² | - |
| 1778031983 | 26.11° C | 81% | 1008 hPa | 0 mm | 2.24 m/s, 230° | 0 W/m² | - |
| 1778031678 | 26.11° C | 81% | 1007.6 hPa | 0 mm | 1.34 m/s, 195° | 0 W/m² | - |
| 1778031377 | 26.11° C | 81% | 1007.6 hPa | 0 mm | 1.34 m/s, 179° | 0 W/m² | - |
| 1778031073 | 26.11° C | 81% | 1007.6 hPa | 0 mm | 0.89 m/s, 219° | 0 W/m² | - |
| 1778030770 | 26.11° C | 80% | 1007.6 hPa | 0 mm | 2.24 m/s, 183° | 0 W/m² | - |
| 1778030466 | 26.11° C | 80% | 1007.3 hPa | 0 mm | 0.89 m/s, 166° | 0 W/m² | - |
| 1778030164 | 26.11° C | 80% | 1007.3 hPa | 0 mm | 0.45 m/s, 174° | 0 W/m² | - |
* Rain latest hour (hover to see other rain measurements)
** Current wind speed in m/s (hover to see current wind gust speed)